EW0482 Weather Reports


Display with metric or nautical units.
time (UTC)temp
F
wind
direction
speed
MPH
gust
MPH
rain 1hr
in
rain 24hr
in
rain mn
in
humidity
%
barometer
mb
20260902231609 77 275 1.0 10.0 0.00 0.00 0.00 65 1003.3
20260902230107 77 178 1.0 7.0 0.00 0.00 0.00 64 1003.4
20260902224554 77 254 1.0 7.0 0.00 0.00 0.00 59 1003.4
20260902223052 77 246 3.0 8.0 0.00 0.00 0.00 61 1003.6
20260902221551 78 248 4.0 9.0 0.00 0.00 0.00 63 1003.8
20260902220052 79 227 0.0 6.0 0.00 0.00 0.00 62 1003.8
20260902214548 78 178 0.0 6.0 0.00 0.00 0.00 62 1004.0
20260902213046 78 245 2.0 7.0 0.00 0.00 0.00 61 1004.1
20260902211545 78 178 0.0 5.0 0.00 0.00 0.00 61 1004.1
20260902210044 78 214 0.0 7.0 0.00 0.00 0.00 63 1004.4
20260902204543 78 208 1.0 5.0 0.00 0.00 0.00 63 1004.5
20260902203042 78 221 0.0 6.0 0.00 0.00 0.00 63 1004.5
20260902201542 78 246 3.0 9.0 0.00 0.00 0.00 63 1004.6
20260902200141 78 252 3.0 12.0 0.00 0.00 0.00 64 1004.7
20260902194540 78 219 0.0 2.0 0.00 0.00 0.00 66 1004.8
20260902193040 78 266 0.0 5.0 0.00 0.00 0.00 65 1005.0
20260902191540 77 244 1.0 7.0 0.00 0.00 0.00 66 1005.0
20260902190038 79 239 1.0 8.0 0.00 0.00 0.00 63 1005.3
20260902184537 80 238 1.0 4.0 0.00 0.00 0.00 61 1005.3
20260902183037 80 61 0.0 4.0 0.00 0.00 0.00 57 1005.3
20260902181533 79 91 0.0 2.0 0.00 0.00 0.00 59 1005.4
20260902180031 78 243 1.0 3.0 0.00 0.00 0.00 59 1005.4
20260902174533 77 108 0.0 3.0 0.00 0.00 0.00 61 1005.4
20260902173034 77 130 0.0 2.0 0.00 0.00 0.00 63 1005.5
20260902171526 76 185 0.0 2.0 0.00 0.00 0.00 64 1005.4
20260902170021 76 19 0.0 2.0 0.00 0.00 0.00 68 1005.3
20260902164517 75 113 0.0 1.0 0.00 0.00 0.00 70 1005.2
20260902163017 74 109 0.0 2.0 0.00 0.00 0.00 70 1005.2
20260902161532 74 246 0.0 1.0 0.00 0.00 0.00 72 1005.2
20260902160011 73 245 0.0 1.0 0.00 0.00 0.00 73 1005.3
20260902154510 72 248 0.0 0.0 0.00 0.00 0.00 75 1005.2
20260902153006 71 248 0.0 1.0 0.00 0.00 0.00 77 1005.1
20260902151508 70 248 0.0 1.0 0.00 0.00 0.00 77 1005.1
20260902150001 70 249 0.0 1.0 0.00 0.00 0.00 78 1005.1
20260902144603 68 248 0.0 0.0 0.00 0.00 0.00 82 1005.1
20260902143056 66 249 0.0 0.0 0.00 0.00 0.00 85 1005.1
20260902141549 63 248 0.0 0.0 0.00 0.00 0.00 85 1004.8
20260902140051 62 248 0.0 0.0 0.00 0.00 0.00 85 1004.6
20260902134548 62 248 0.0 0.0 0.00 0.00 0.00 85 1004.5
20260902133047 62 248 0.0 0.0 0.00 0.00 0.00 86 1004.3
20260902131547 62 248 0.0 1.0 0.00 0.00 0.00 86 1004.3
20260902130045 61 248 0.0 1.0 0.00 0.00 0.00 86 1004.3
20260902124545 62 248 0.0 0.0 0.00 0.00 0.00 86 1004.4
20260902123045 62 248 0.0 0.0 0.00 0.00 0.00 86 1004.5
20260902121544 62 248 0.0 0.0 0.00 0.00 0.00 86 1004.5
20260902120046 62 248 0.0 0.0 0.00 0.00 0.00 86 1004.5
20260902114605 62 248 0.0 0.0 0.00 0.00 0.00 86 1004.6
20260902113053 62 248 0.0 0.0 0.00 0.00 0.00 86 1004.5
20260902111551 62 248 0.0 0.0 0.00 0.00 0.00 86 1004.6
20260902110041 62 248 0.0 0.0 0.00 0.00 0.00 86 1004.6
20260902104541 62 248 0.0 0.0 0.00 0.00 0.00 86 1004.6
20260902103039 62 248 0.0 0.0 0.00 0.00 0.00 86 1004.6
20260902101538 62 248 0.0 0.0 0.00 0.00 0.00 86 1004.6
20260902100037 62 248 0.0 0.0 0.00 0.00 0.00 86 1004.6
20260902094537 62 248 0.0 0.0 0.00 0.00 0.00 86 1004.7
20260902093036 62 248 0.0 0.0 0.00 0.00 0.00 86 1004.7
20260902091546 62 248 0.0 0.0 0.00 0.00 0.00 86 1004.7
20260902090042 62 248 0.0 0.0 0.00 0.00 0.00 86 1004.7
20260902084534 62 248 0.0 0.0 0.00 0.00 0.00 86 1004.7
20260902083033 62 248 0.0 0.0 0.00 0.00 0.00 86 1004.8
20260902081539 63 248 0.0 0.0 0.00 0.00 0.00 86 1004.8
20260902080030 63 248 0.0 0.0 0.00 0.00 0.00 85 1004.7
20260902074540 63 248 0.0 0.0 0.00 0.00 0.00 85 1004.7
20260902073027 63 248 0.0 0.0 0.00 0.00 0.00 85 1004.6
20260902071525 64 248 0.0 0.0 0.00 0.00 0.00 84 1004.4
20260902070021 64 248 0.0 0.0 0.00 0.00 0.00 84 1004.3
20260902064530 65 248 0.0 0.0 0.00 0.00 0.00 83 1004.2
20260902063023 65 248 0.0 0.0 0.00 0.00 0.00 83 1004.2
20260902061536 65 248 0.0 0.0 0.00 0.00 0.00 83 1004.2
20260902060020 66 248 0.0 0.0 0.00 0.00 0.00 82 1004.1
20260902054534 66 248 0.0 0.0 0.00 0.00 0.00 81 1004.0
20260902053023 66 248 0.0 0.0 0.00 0.00 0.00 81 1004.1
20260902051520 66 248 0.0 0.0 0.00 0.00 0.00 80 1003.9
20260902050018 66 248 0.0 0.0 0.00 0.00 0.00 80 1004.0
20260902044517 67 248 0.0 0.0 0.00 0.00 0.00 79 1003.9
20260902043017 67 248 0.0 0.0 0.00 0.00 0.00 78 1003.7
20260902041517 68 248 0.0 0.0 0.00 0.00 0.00 78 1003.6
20260902040015 68 248 0.0 0.0 0.00 0.00 0.00 78 1003.4
20260902034522 68 248 0.0 0.0 0.00 0.00 0.00 76 1003.0
20260902033014 69 248 0.0 3.0 0.00 0.00 0.00 74 1002.9
20260902031517 70 244 0.0 5.0 0.00 0.00 0.00 75 1002.8
20260902030013 70 246 0.0 4.0 0.00 0.00 0.00 75 1002.9
20260902024512 70 231 0.0 4.0 0.00 0.00 0.00 74 1002.8
20260902023013 70 243 0.0 3.0 0.00 0.00 0.00 75 1002.5
20260902021512 70 248 0.0 6.0 0.00 0.00 0.00 75 1002.5
20260902020011 71 224 0.0 5.0 0.00 0.00 0.00 75 1002.5
20260902014511 72 236 1.0 6.0 0.00 0.00 0.00 75 1002.6
20260902013013 72 159 0.0 2.0 0.00 0.00 0.00 74 1002.6
20260902011511 73 171 1.0 7.0 0.00 0.00 0.00 74 1002.7
20260902010016 73 235 0.0 5.0 0.00 0.00 0.00 73 1002.8
20260902004506 74 241 2.0 8.0 0.00 0.00 0.00 70 1002.8
20260902003005 75 146 1.0 4.0 0.00 0.00 0.00 68 1002.8
20260902001506 75 182 0.0 4.0 0.00 0.00 0.00 65 1003.0
20260902000008 76 230 0.0 7.0 0.00 0.00 0.00 64 1003.0
20260901234502 76 238 1.0 9.0 0.00 0.00 0.00 66 1003.0
20260901233002 76 234 0.0 3.0 0.00 0.00 0.00 65 1003.0